map of TGI home
Great Circle Mapper logo
TGI - Airport
Location
City:  Tingo Maria, Perú
ICAO / IATA:SPGM / TGI

Details
Type:Airport (Aerodrome, Airfield)
Latitude:9°17'21"S (-9.289166)
Longitude:76°00'18"W (-76.004999)
Elevation:2010 ft (613 m)
Variation:2.9°W (WMM2015 magnetic declination)
Runways:1
Longest:6890 × 98 ft (2100 × 30 m)

Time
Time Zone:UTC-5
Local Time:

Weather
METAR:SPGM 192100Z /////KT 9999 FEW040 BKN110 29/22 Q1008 RMK TX//// BIRD HAZARD RWY 19 PP000
TAF:SPGM 191600Z 1918/2018 00000KT 9999 SCT030 BKN070 TX29/1919Z TN20/2011Z
BECMG 1920/1922 SCT020 OVC080

Related Locations
Nearby:
Farthest:PQC: 12369 mi / 19906 km
Phú Quóc [Intl], VN

Find:

   beyond  
but within

Other Information
Maps:
NOTAMs:
Links:
Sources:

  
flag of Perú   

Sectional Chart

Flight Planning
at skyvector.com

Satellite Image

Google Maps Satellite View

 

Copyright © 2004-2014 Karl L. Swartz. All rights reserved.
The Great Circle Mapper name and logo are trademarks of the Great Circle Mapper.
All other trademarks mentioned herein belong to their respective owners.
Please see credits for attibutions and further copyright information.

  Follow gcmap on Facebook Follow gcmap on Twitter

hCard Microformat

Geo Microformat